Date,TemperatureHighF,TemperatureAvgF,TemperatureLowF,DewpointHighF,DewpointAvgF,DewpointLowF,HumidityHigh,HumidityAvg,HumidityLow,PressureMaxIn,PressureMinIn,WindSpeedMaxMPH,WindSpeedAvgMPH,GustSpeedMaxMPH,PrecipitationSumIn
2013-1-1,53,40,29,30,28,23,90,64,31,30.23,30.08,5,1,7,0.00
2013-1-2,62,45,30,31,26,20,87,54,21,30.11,29.96,4,0,7,0.00
2013-1-3,60,45,33,30,28,24,80,53,30,30.17,29.99,13,3,15,0.00
2013-1-4,58,46,37,29,28,25,70,51,32,30.27,30.16,10,1,12,0.00
2013-1-5,63,47,34,29,25,17,77,47,17,30.32,30.20,6,1,8,0.00
2013-1-6,66,52,42,28,20,15,58,31,15,30.20,29.94,9,3,15,0.00
2013-1-7,57,44,33,29,27,25,75,53,31,29.95,29.81,10,2,14,0.00
2013-1-8,62,45,31,30,27,24,85,54,26,30.11,29.91,3,0,5,0.00
2013-1-9,70,52,35,27,20,12,66,35,11,30.21,30.04,9,2,11,0.00
2013-1-10,67,55,40,35,23,19,49,31,18,30.06,29.80,19,3,29,0.00
2013-1-11,54,40,31,36,24,9,94,57,25,30.08,29.87,15,3,24,0.06
2013-1-12,46,34,25,19,14,7,71,48,22,30.09,29.96,6,1,12,0.00
2013-1-13,48,34,24,15,10,2,61,41,16,30.10,29.97,6,1,9,0.00
2013-1-14,44,32,23,15,8,2,66,40,20,30.20,30.03,11,2,16,0.00
2013-1-15,47,32,19,8,4,-2,60,34,13,30.33,30.19,4,1,7,0.00
2013-1-16,61,41,24,16,9,5,53,31,12,30.35,30.19,7,1,7,0.00
2013-1-17,68,53,34,18,14,12,46,24,12,30.24,30.13,11,3,14,0.00
2013-1-18,75,57,46,24,19,13,37,24,10,30.23,30.09,10,2,11,0.00
2013-1-19,76,55,37,26,22,14,49,30,10,30.24,30.11,5,1,9,0.00
2013-1-20,78,58,43,36,26,22,47,32,18,30.17,30.02,6,1,9,0.00
2013-1-21,80,60,42,36,31,29,62,37,19,30.12,30.01,7,1,12,0.00
2013-1-22,81,62,44,36,32,28,60,36,16,30.19,30.08,3,1,6,0.00
2013-1-23,82,63,48,34,30,26,44,30,16,30.23,30.11,6,1,7,0.00
2013-1-24,64,60,56,54,43,31,81,56,36,30.27,30.17,5,0,7,0.04
2013-1-25,78,65,52,50,47,44,80,55,31,30.21,30.00,3,1,7,0.00
2013-1-26,68,61,55,59,53,47,94,76,49,30.02,29.93,13,2,18,0.64
2013-1-27,66,58,50,53,49,46,97,74,49,30.04,29.94,7,1,12,0.00
2013-1-28,57,51,44,49,41,31,90,71,55,30.01,29.93,14,4,19,0.10
2013-1-29,52,44,36,35,27,19,83,55,27,30.19,30.01,16,3,19,0.00
2013-1-30,58,44,32,29,25,17,82,50,21,30.34,30.19,9,1,9,0.00
2013-1-31,62,46,33,36,28,-100,79,55,27,30.26,30.11,6,1,8,0.00
2013-2-1,72,53,36,34,29,23,80,47,16,30.22,30.13,6,1,8,0.00
2013-2-2,77,56,38,36,30,21,68,42,13,30.26,30.11,5,1,7,0.00
2013-2-3,71,59,50,39,34,26,61,41,24,30.16,29.97,6,1,11,0.00
2013-2-4,71,58,46,40,39,37,75,52,31,30.06,29.95,5,1,8,0.00
2013-2-5,74,58,44,43,40,37,79,55,28,30.04,29.92,5,1,12,0.00
2013-2-6,71,58,46,42,39,35,76,53,28,30.05,29.93,9,1,13,0.00
2013-2-7,71,56,43,40,34,27,76,48,19,30.13,29.97,6,1,7,0.00
2013-2-8,68,57,45,35,26,16,61,34,14,29.97,29.79,12,3,17,0.00
2013-2-9,54,45,36,37,29,22,92,57,31,30.03,29.81,12,2,20,0.07
2013-2-10,57,44,31,28,25,19,83,52,23,30.04,29.92,5,1,11,0.00
2013-2-11,55,39,31,36,30,23,93,71,36,30.15,29.96,10,1,14,0.16
2013-2-12,53,41,30,35,31,27,96,70,40,30.27,30.16,7,1,8,0.00
2013-2-13,61,45,30,30,26,17,88,53,18,30.20,30.07,4,1,8,0.00
2013-2-14,66,49,32,31,28,22,81,48,21,30.15,30.03,7,1,8,0.00
2013-2-15,73,54,40,33,26,12,70,40,10,30.26,30.13,6,1,12,0.00
2013-2-16,74,60,41,23,14,3,49,20,6,30.27,30.02,14,4,16,0.00
2013-2-17,74,59,43,20,15,5,35,19,7,30.02,29.86,10,2,18,0.00
2013-2-18,71,56,42,22,18,11,42,25,11,30.07,29.93,3,1,6,0.00
2013-2-19,70,58,44,31,18,10,44,24,10,29.95,29.72,17,3,21,0.00
2013-2-20,52,42,33,38,34,31,96,76,45,29.95,29.71,13,2,20,0.23
2013-2-21,52,43,32,36,33,30,97,72,44,30.05,29.93,7,1,7,0.21
2013-2-22,56,46,36,38,33,25,94,64,40,30.14,29.98,8,2,11,0.00
2013-2-23,65,49,34,33,28,18,83,51,17,30.14,29.84,4,1,11,0.00
2013-2-24,51,44,36,34,20,6,80,44,17,30.09,29.80,16,4,25,0.00
2013-2-25,59,44,29,25,19,15,68,40,19,30.21,30.04,7,1,10,0.00
2013-2-26,63,47,31,24,20,15,72,40,16,30.08,29.95,14,2,17,0.00
2013-2-27,64,49,34,23,15,4,65,31,10,30.20,30.08,10,2,14,0.00
2013-2-28,67,50,31,20,15,9,58,29,11,30.32,30.20,6,1,14,0.00
2013-3-1,76,55,35,30,20,13,54,30,10,30.34,30.20,5,1,7,0.00
2013-3-2,84,63,40,29,24,13,60,28,7,30.32,30.12,6,1,7,0.00
2013-3-3,81,65,47,30,24,17,45,25,9,30.15,29.95,6,2,11,0.00
2013-3-4,73,64,52,33,29,21,47,27,16,30.10,29.90,16,3,21,0.00
2013-3-5,79,63,48,34,29,23,52,31,14,30.13,30.00,7,2,17,0.00
2013-3-6,82,66,54,35,31,25,46,29,14,30.06,29.91,6,1,10,0.00
2013-3-7,79,64,48,34,27,15,53,29,9,30.00,29.89,17,3,20,0.00
2013-3-8,66,58,45,46,37,29,71,47,30,29.99,29.79,22,6,34,0.00
2013-3-9,53,48,42,40,36,32,81,63,53,30.09,29.98,8,2,14,0.01
2013-3-10,66,53,40,40,35,26,87,54,24,30.16,30.05,11,2,16,0.00
2013-3-11,73,58,40,35,31,25,74,40,17,30.18,30.03,8,2,13,0.00
2013-3-12,83,62,42,40,32,25,63,37,12,30.12,30.00,6,1,9,0.00
2013-3-13,90,69,48,37,29,17,55,28,7,30.17,30.04,5,1,9,0.00
2013-3-14,92,72,52,33,24,11,40,20,5,30.16,30.02,5,1,9,0.00
2013-3-15,93,74,54,32,24,12,31,18,5,30.08,29.93,15,2,23,0.00
2013-3-16,89,72,53,28,21,3,35,18,4,29.97,29.77,16,3,19,0.00
2013-3-17,83,69,54,27,22,18,28,18,9,29.95,29.84,20,4,22,0.00
2013-3-18,83,67,52,34,27,19,41,24,10,30.03,29.92,8,2,17,0.00
2013-3-19,80,67,53,36,30,27,41,27,16,30.07,29.96,9,2,15,0.00
2013-3-20,82,67,53,33,30,25,43,27,13,30.08,29.91,8,1,11,0.00
2013-3-21,78,67,55,36,33,30,41,29,20,29.90,29.76,7,1,10,0.00
2013-3-22,80,69,57,36,32,23,42,27,12,29.85,29.71,14,3,19,0.00
2013-3-23,74,63,52,33,21,2,42,23,6,30.01,29.85,13,3,22,0.00
2013-3-24,76,60,44,16,8,-6,30,15,4,30.04,29.89,10,2,16,0.00
2013-3-25,80,64,46,22,15,10,26,16,8,30.03,29.92,6,1,14,0.00
2013-3-26,87,70,55,23,16,6,25,14,5,30.01,29.85,13,2,14,0.00
2013-3-27,84,70,55,26,20,14,25,16,9,30.04,29.92,12,2,19,0.00
2013-3-28,85,71,56,34,24,18,31,19,9,30.09,29.98,10,2,14,0.00
2013-3-29,86,71,56,34,25,13,32,20,7,30.13,30.02,7,1,12,0.00
2013-3-30,84,70,58,31,23,17,30,18,8,30.10,29.96,7,1,15,0.00
2013-3-31,86,69,52,31,28,23,42,23,11,30.08,29.93,8,1,13,0.00
2013-4-1,83,70,54,37,30,23,39,24,15,30.05,29.90,9,3,19,0.00
2013-4-2,78,65,49,27,23,16,40,22,10,30.00,29.90,12,2,18,0.00
2013-4-3,83,68,50,30,26,23,36,22,12,30.07,29.97,6,2,13,0.00
2013-4-4,89,72,54,32,24,9,36,20,5,30.11,29.94,8,2,12,0.00
2013-4-5,88,74,57,33,28,22,32,19,11,30.02,29.88,11,2,18,0.00
2013-4-6,86,72,56,36,32,27,40,25,12,30.02,29.85,6,2,13,0.00
2013-4-7,86,72,56,38,32,23,49,26,10,29.93,29.78,10,2,14,0.00
2013-4-8,81,69,47,44,35,25,89,31,14,29.80,29.44,28,8,36,0.05
2013-4-9,65,56,47,46,33,22,92,47,21,29.91,29.65,12,4,21,0.08
2013-4-10,68,58,45,33,29,23,56,34,19,30.02,29.91,12,2,20,0.00
2013-4-11,79,63,46,33,29,22,56,31,13,30.02,29.80,8,2,13,0.00
2013-4-12,82,67,54,33,26,21,36,23,11,29.86,29.77,9,1,14,0.00
2013-4-13,85,71,52,31,26,19,41,21,9,29.90,29.75,10,2,16,0.00
2013-4-14,84,72,57,38,31,23,39,24,11,29.85,29.71,15,4,22,0.00
2013-4-15,86,74,60,40,32,24,41,24,11,29.84,29.73,17,5,26,0.00
2013-4-16,84,72,59,40,32,25,37,24,13,29.86,29.74,17,5,29,0.00
2013-4-17,68,61,53,42,25,10,55,29,13,30.03,29.81,13,4,24,0.00
2013-4-18,71,58,43,17,12,5,32,18,8,30.14,30.02,12,2,18,0.00
2013-4-19,82,64,41,18,5,-9,38,13,3,30.17,29.96,5,1,9,0.00
2013-4-20,84,67,47,26,12,2,24,13,6,30.01,29.91,10,2,17,0.00
2013-4-21,90,72,52,25,18,11,27,15,6,30.08,29.95,7,2,21,0.00
2013-4-22,92,76,56,26,18,6,25,13,4,30.02,29.82,13,2,27,0.00
2013-4-23,89,75,56,30,20,12,23,14,6,29.92,29.82,15,2,15,0.00
2013-4-24,91,77,59,31,24,14,27,15,6,29.97,29.85,9,2,16,0.00
2013-4-25,83,74,61,35,27,13,31,19,7,30.07,29.91,16,4,28,0.00
2013-4-26,87,71,51,32,26,15,37,21,7,30.14,30.03,6,1,12,0.00
2013-4-27,91,75,56,29,24,13,33,17,6,30.11,29.93,6,1,11,0.00
2013-4-28,95,78,58,28,19,11,26,13,5,29.96,29.80,9,2,12,0.00
2013-4-29,97,80,59,25,17,9,22,11,4,29.89,29.72,7,2,16,0.00
2013-4-30,95,81,63,28,20,12,23,12,5,29.87,29.75,13,3,17,0.00
2013-5-1,91,77,58,31,22,10,29,15,5,30.03,29.86,9,2,17,0.00
2013-5-2,90,77,60,31,20,9,28,14,6,30.15,30.02,14,4,21,0.00
2013-5-3,87,74,61,23,18,11,22,14,6,30.11,29.84,17,4,24,0.00
2013-5-4,92,78,61,27,20,13,21,12,6,29.88,29.74,16,3,20,0.00
2013-5-5,88,78,66,43,29,19,43,18,8,29.99,29.81,18,5,24,0.00
2013-5-6,84,72,60,52,41,33,73,37,16,30.02,29.91,9,3,18,0.03
2013-5-7,83,71,59,45,36,21,50,31,11,30.04,29.89,13,3,21,0.00
2013-5-8,82,70,56,43,38,33,54,34,18,30.07,29.94,9,2,12,0.00
2013-5-9,84,72,58,44,36,22,54,30,11,30.04,29.91,9,2,13,0.00
2013-5-10,87,73,58,40,36,28,45,28,12,30.09,29.95,14,2,20,0.00
2013-5-11,86,76,61,40,36,31,41,25,15,30.14,30.04,16,4,20,0.00
2013-5-12,90,79,67,40,34,28,33,20,11,30.19,29.99,15,4,21,0.00
2013-5-13,94,82,67,34,28,18,28,15,7,30.12,29.95,13,3,24,0.00
2013-5-14,97,84,70,41,33,20,34,17,9,30.04,29.88,12,2,15,0.00
2013-5-15,96,84,69,37,34,30,30,18,10,30.06,29.88,12,3,20,0.00
2013-5-16,97,84,67,34,28,17,26,15,6,29.99,29.81,12,2,19,0.00
2013-5-17,93,81,65,36,28,16,29,16,7,29.96,29.84,14,4,19,0.00
2013-5-18,90,79,64,41,30,20,35,18,8,29.99,29.87,12,3,19,0.00
2013-5-19,91,79,63,44,37,28,43,25,11,29.98,29.83,12,2,15,0.00
2013-5-20,91,79,62,40,31,21,37,20,10,29.95,29.84,15,3,21,0.00
2013-5-21,95,79,60,27,20,7,24,13,4,29.97,29.81,8,2,14,0.00
2013-5-22,98,83,63,30,23,16,22,12,6,29.88,29.72,11,2,18,0.00
2013-5-23,97,83,65,37,28,15,29,15,5,29.92,29.80,14,3,19,0.00
2013-5-24,97,83,65,44,28,2,34,17,3,29.99,29.87,12,2,15,0.00
2013-5-25,96,83,65,37,25,8,31,15,4,30.00,29.89,18,3,20,0.00
2013-5-26,95,81,64,31,17,-7,24,12,2,30.02,29.90,14,3,17,0.00
2013-5-27,97,81,61,33,16,-20,20,11,1,29.96,29.77,9,2,15,0.00
2013-5-28,94,80,62,35,24,10,25,14,5,29.83,29.66,13,3,19,0.00
2013-5-29,94,81,64,51,36,29,39,22,10,29.82,29.70,10,2,16,0.00
2013-5-30,97,85,70,56,45,33,54,29,11,29.90,29.79,10,2,14,0.00
2013-5-31,98,85,71,58,49,40,58,31,14,29.94,29.82,10,2,15,0.00
2013-6-1,106,89,69,43,37,21,35,19,5,29.91,29.75,8,2,12,0.00
2013-6-2,106,91,74,43,38,27,29,17,7,29.88,29.73,13,3,19,0.00
2013-6-3,102,88,72,41,31,17,30,15,5,29.91,29.80,12,2,18,0.00
2013-6-4,101,88,73,45,36,25,27,17,7,29.94,29.82,12,3,17,0.00
2013-6-5,100,86,68,40,28,12,29,15,4,29.96,29.81,9,2,16,0.00
2013-6-6,103,88,67,37,29,24,21,13,7,29.90,29.76,9,2,12,0.00
2013-6-7,106,90,71,34,30,22,23,13,5,29.88,29.71,10,2,14,0.00
2013-6-8,104,91,73,41,27,19,21,11,5,29.92,29.81,12,3,18,0.00
2013-6-9,103,90,75,41,29,12,28,13,4,29.98,29.85,11,2,16,0.00
2013-6-10,106,91,70,39,31,16,29,14,4,29.98,29.83,9,2,15,0.00
2013-6-11,106,92,71,38,27,8,24,11,3,29.97,29.85,11,2,19,0.00
2013-6-12,106,92,73,39,33,28,21,13,7,30.01,29.86,10,3,17,0.00
2013-6-13,103,92,78,52,45,40,32,21,13,30.01,29.84,10,3,19,0.00
2013-6-14,102,91,79,56,51,42,44,26,15,29.96,29.79,10,2,15,0.00
2013-6-15,100,88,78,67,55,47,65,34,21,29.98,29.85,10,2,16,0.07
2013-6-16,102,90,72,61,48,30,67,29,9,30.01,29.86,10,2,15,0.01
2013-6-17,104,89,70,40,32,26,33,15,7,30.01,29.85,12,1,15,0.00
2013-6-18,102,83,76,34,15,-17,20,10,1,29.90,29.80,5,1,14,0.00
2013-6-19,105,90,70,37,23,7,22,10,3,29.87,29.74,11,3,20,0.00
2013-6-20,103,89,68,38,22,5,27,12,3,29.91,29.79,13,2,20,0.00
2013-6-21,103,89,71,43,28,7,28,14,3,29.95,29.82,13,3,23,0.00
2013-6-22,102,88,69,38,28,7,28,13,3,29.95,29.79,10,2,19,0.00
2013-6-23,102,88,69,37,29,12,26,14,4,29.92,29.75,16,4,21,0.00
2013-6-24,101,88,69,40,31,15,26,14,5,29.93,29.82,12,3,21,0.00
2013-6-25,102,88,68,43,27,6,31,14,3,30.01,29.89,13,1,17,0.00
2013-6-26,102,88,70,36,26,13,21,12,4,30.09,29.96,10,2,13,0.00
2013-6-27,104,90,72,45,37,28,34,17,9,30.12,29.95,12,3,19,0.00
2013-6-28,109,93,74,45,39,35,26,16,9,30.02,29.85,5,1,12,0.00
2013-6-29,111,98,83,48,41,36,21,15,8,29.95,29.80,12,3,19,0.00
2013-6-30,110,95,80,62,52,44,51,26,11,30.05,29.75,13,4,26,0.01
2013-7-1,107,91,79,61,58,52,55,35,16,29.98,29.84,9,2,17,0.00
2013-7-2,101,89,73,64,58,53,72,37,21,30.13,29.89,21,4,32,0.04
2013-7-3,105,92,76,57,53,48,51,29,17,29.98,29.75,9,3,18,0.00
2013-7-4,105,94,82,60,55,50,45,29,17,29.93,29.76,8,3,17,0.00
2013-7-5,100,85,73,70,63,56,85,52,28,29.94,29.81,12,2,20,0.07
2013-7-6,103,87,72,67,62,54,78,48,21,29.90,29.73,9,2,14,0.00
2013-7-7,108,91,78,64,60,55,62,38,18,29.90,29.77,9,2,21,0.00
2013-7-8,105,93,83,62,59,55,47,33,20,29.98,29.87,16,3,19,0.00
2013-7-9,98,89,79,69,65,60,69,46,31,30.10,29.92,11,4,19,0.00
2013-7-10,99,84,74,72,67,65,81,58,33,30.08,29.93,12,2,16,0.04
2013-7-11,94,82,73,72,68,65,90,64,40,30.05,29.93,8,2,16,0.10
2013-7-12,94,84,74,70,66,59,87,57,32,30.05,29.89,9,2,12,0.12
2013-7-13,100,88,76,67,64,59,71,46,27,30.02,29.88,9,2,13,0.00
2013-7-14,102,92,82,63,61,58,50,37,26,30.00,29.84,14,3,15,0.00
2013-7-15,102,87,78,69,64,59,70,47,25,29.93,29.78,12,2,29,0.14
2013-7-16,89,81,77,68,66,62,74,60,42,30.08,29.93,13,3,19,0.01
2013-7-17,98,86,75,68,61,54,77,46,24,30.08,29.94,8,3,21,0.10
2013-7-18,95,86,78,63,58,55,50,39,26,30.05,29.89,15,6,22,0.00
2013-7-19,94,85,78,66,62,60,60,46,33,30.00,29.85,9,2,12,0.00
2013-7-20,93,80,71,72,68,66,91,68,42,29.97,29.83,18,2,29,0.54
2013-7-21,93,82,73,71,67,63,88,63,37,30.01,29.90,9,2,16,0.00
2013-7-22,95,84,73,69,65,61,82,55,33,30.05,29.94,12,3,18,0.00
2013-7-23,97,87,75,66,62,59,72,45,29,30.06,29.90,9,2,16,0.00
2013-7-24,95,84,77,72,65,62,82,54,35,30.01,29.90,12,2,16,0.03
2013-7-25,95,82,78,71,68,63,76,63,40,30.07,29.98,8,1,13,0.00
2013-7-26,99,81,72,72,68,63,91,67,31,30.15,30.06,18,2,38,0.58
2013-7-27,97,83,73,71,67,64,86,61,36,30.09,29.91,10,1,19,0.03
2013-7-28,101,88,74,67,59,48,75,41,20,29.96,29.83,11,2,14,0.00
2013-7-29,100,88,74,55,51,46,48,30,18,30.07,29.94,12,1,12,0.00
2013-7-30,104,90,74,59,55,52,55,32,18,30.16,30.02,8,2,13,0.00
2013-7-31,104,90,81,60,58,53,48,35,19,30.11,29.98,10,2,16,0.00
2013-8-1,92,86,82,63,61,56,52,43,34,30.05,29.96,16,3,20,0.00
2013-8-2,94,84,78,67,63,59,60,50,36,30.03,29.95,7,1,12,0.00
2013-8-3,102,88,73,63,60,55,69,42,23,30.06,29.93,10,2,19,0.00
2013-8-4,96,87,80,63,59,55,51,40,25,30.08,29.95,7,1,12,0.00
2013-8-5,96,81,71,67,61,55,87,54,26,30.11,29.93,14,3,19,0.08
2013-8-6,85,77,70,68,65,59,88,69,47,30.09,30.00,12,2,17,0.05
2013-8-7,95,83,69,66,59,52,83,50,23,30.09,29.96,10,2,16,0.00
2013-8-8,100,85,70,58,50,34,61,33,11,30.02,29.89,12,2,14,0.00
2013-8-9,102,88,70,48,46,40,44,25,14,30.00,29.88,10,2,17,0.00
2013-8-10,101,89,74,56,43,37,35,21,13,30.07,29.92,10,2,12,0.00
2013-8-11,101,87,76,62,56,38,53,35,21,30.04,29.89,9,2,16,0.00
2013-8-12,104,90,74,63,54,35,64,33,13,29.99,29.87,18,2,20,0.00
2013-8-13,105,89,72,50,42,38,42,21,11,30.05,29.89,9,2,15,0.00
2013-8-14,105,89,78,63,53,40,50,31,16,30.02,29.87,13,3,24,0.00
2013-8-15,105,90,76,62,58,53,59,36,18,30.04,29.89,8,2,17,0.00
2013-8-16,108,93,80,61,57,47,48,32,13,30.04,29.89,11,2,16,0.00
2013-8-17,108,93,78,64,57,48,56,33,16,30.05,29.85,8,2,17,0.00
2013-8-18,106,91,82,58,54,44,42,30,13,30.05,29.94,12,3,22,0.00
2013-8-19,104,91,80,59,55,48,49,31,16,30.03,29.88,7,2,13,0.00
2013-8-20,103,88,81,66,59,53,58,39,22,30.04,29.89,14,3,18,0.03
2013-8-21,97,86,78,63,59,56,58,42,26,30.03,29.91,11,2,16,0.00
2013-8-22,102,86,74,63,60,54,65,44,20,30.04,29.86,12,2,18,0.00
2013-8-23,101,84,71,65,60,55,76,47,22,30.01,29.81,11,2,15,0.00
2013-8-24,93,81,72,67,62,56,84,56,29,30.04,29.90,11,3,15,0.02
2013-8-25,91,79,74,72,68,63,92,71,39,30.06,29.96,6,1,19,0.16
2013-8-26,100,81,72,72,68,58,94,70,25,30.04,29.88,10,1,20,0.05
2013-8-27,102,86,69,69,61,51,92,50,20,29.96,29.82,10,2,16,0.01
2013-8-28,97,86,78,67,62,58,69,46,30,30.05,29.88,11,2,15,0.00
2013-8-29,88,80,75,69,67,64,81,66,48,30.15,30.04,7,2,11,0.00
2013-8-30,92,82,74,71,68,62,88,64,40,30.13,30.01,4,1,7,0.00
2013-8-31,97,85,72,67,64,60,78,52,32,30.06,29.91,12,2,18,0.00
2013-9-1,100,88,74,65,62,56,71,45,28,30.00,29.86,9,2,13,0.00
2013-9-2,98,86,76,65,61,55,64,46,24,30.07,29.86,6,2,13,0.00
2013-9-3,104,84,75,70,62,59,66,49,23,30.01,29.91,14,2,18,0.02
2013-9-4,102,87,70,63,57,51,75,41,19,30.03,29.91,10,1,11,0.00
2013-9-5,103,90,74,55,52,47,48,29,15,30.02,29.91,14,2,15,0.00
2013-9-6,101,87,75,62,56,53,57,37,20,30.04,29.89,8,2,24,0.00
2013-9-7,89,80,74,66,63,60,71,56,40,30.06,29.92,8,2,12,0.00
2013-9-8,88,78,72,70,65,62,88,67,46,29.96,29.85,8,2,12,0.04
2013-9-9,87,75,69,70,67,65,93,76,50,29.92,29.80,10,1,17,0.51
2013-9-10,87,76,66,66,62,58,94,64,39,29.99,29.87,8,1,13,0.23
2013-9-11,92,79,65,64,59,53,91,55,28,30.05,29.92,12,2,16,0.00
2013-9-12,95,82,67,63,58,51,80,48,27,29.97,29.80,9,2,17,0.00
2013-9-13,98,85,73,66,59,43,75,45,15,29.87,29.70,7,1,11,0.00
2013-9-14,99,87,76,64,58,50,63,41,20,29.82,29.71,5,2,10,0.00
2013-9-15,100,87,76,61,57,51,59,38,20,29.88,29.78,6,1,10,0.00
2013-9-16,101,90,79,61,58,52,50,36,20,29.93,29.80,10,4,16,0.00
2013-9-17,102,90,78,61,56,49,54,34,17,29.90,29.73,8,2,11,0.00
2013-9-18,100,89,76,61,49,41,57,28,14,29.86,29.72,7,2,13,0.00
2013-9-19,99,86,70,53,48,42,50,29,17,29.87,29.75,6,1,11,0.00
2013-9-20,101,84,69,58,50,41,47,32,16,29.93,29.80,13,2,19,0.00
2013-9-21,97,85,74,60,56,51,56,38,22,29.94,29.74,10,2,13,0.00
2013-9-22,93,82,73,65,54,35,64,39,23,29.83,29.70,16,5,25,0.00
2013-9-23,91,76,61,44,38,32,46,27,12,29.97,29.82,4,1,9,0.00
2013-9-24,97,80,62,41,36,27,41,23,11,30.03,29.86,6,1,10,0.00
2013-9-25,95,80,64,38,30,23,34,18,9,29.91,29.73,16,3,21,0.00
2013-9-26,92,79,62,55,39,23,51,25,16,29.82,29.71,13,4,24,0.00
2013-9-27,79,72,63,60,44,24,65,39,18,30.00,29.81,11,3,19,0.00
2013-9-28,88,73,55,41,36,27,42,27,18,30.09,29.99,5,1,13,0.00
2013-9-29,92,76,61,44,40,36,46,29,15,30.13,29.99,9,1,10,0.00
2013-9-30,91,75,59,40,35,25,45,25,10,30.05,29.90,7,1,10,0.00
2013-10-1,92,76,58,41,35,30,38,24,13,30.04,29.91,6,1,14,0.00
2013-10-2,91,77,60,48,42,37,49,30,15,30.03,29.87,6,1,12,0.00
2013-10-3,92,77,63,53,42,25,54,32,10,29.94,29.77,11,2,18,0.00
2013-10-4,87,74,61,48,40,21,50,32,16,30.02,29.88,9,2,14,0.00
2013-10-5,83,69,57,28,20,8,28,17,7,30.15,30.03,9,2,16,0.00
2013-10-6,89,72,51,27,21,15,30,16,8,30.15,30.03,7,2,12,0.00
2013-10-7,95,78,62,35,28,22,24,16,11,30.07,29.93,6,2,14,0.00
2013-10-8,89,76,61,37,32,28,32,21,13,29.97,29.82,12,2,21,0.00
2013-10-9,87,75,60,47,37,29,38,26,17,29.85,29.73,21,4,33,0.00
2013-10-10,72,64,56,52,46,40,73,52,34,29.99,29.79,11,4,19,0.00
2013-10-11,77,63,49,44,40,36,73,46,25,30.03,29.93,7,1,12,0.00
2013-10-12,86,69,50,40,36,34,59,34,16,30.00,29.87,6,1,10,0.00
2013-10-13,88,73,57,47,39,34,53,32,18,30.02,29.90,13,3,19,0.00
2013-10-14,83,69,55,45,40,35,65,37,20,30.08,29.94,5,1,10,0.00
2013-10-15,82,69,54,46,34,26,50,30,16,29.99,29.88,10,2,14,0.00
2013-10-16,80,64,50,29,23,13,42,24,9,30.10,30.00,9,1,9,0.00
2013-10-17,80,64,48,26,20,13,32,21,8,30.10,29.93,7,1,9,0.00
2013-10-18,82,65,47,28,24,20,36,23,13,30.05,29.95,8,1,12,0.00
2013-10-19,86,67,48,30,21,16,37,21,8,30.09,29.95,7,1,12,0.00
2013-10-20,83,66,48,22,19,16,29,18,8,30.02,29.88,6,1,12,0.00
2013-10-21,84,67,50,23,19,15,28,17,8,30.04,29.95,8,1,11,0.00
2013-10-22,89,72,51,29,20,13,28,16,6,30.08,29.94,8,2,13,0.00
2013-10-23,91,75,62,34,29,24,27,19,9,30.00,29.87,6,1,12,0.00
2013-10-24,91,75,58,34,28,24,31,19,11,30.03,29.89,9,2,12,0.00
2013-10-25,86,70,53,32,29,25,38,24,11,30.11,30.02,11,1,12,0.00
2013-10-26,88,69,50,33,30,24,43,25,10,30.16,30.01,3,1,9,0.00
2013-10-27,90,74,61,37,29,22,32,20,10,30.04,29.82,10,2,14,0.00
2013-10-28,80,69,56,37,33,26,44,28,14,29.95,29.86,19,3,26,0.00
2013-10-29,81,68,55,41,36,29,54,32,16,29.98,29.85,19,4,26,0.00
2013-10-30,68,58,49,40,35,28,64,44,27,30.06,29.93,9,2,17,0.00
2013-10-31,74,58,42,32,27,9,59,34,8,30.14,30.02,6,1,11,0.00
2013-11-1,80,60,43,30,24,19,40,26,13,30.19,30.03,6,1,7,0.00
2013-11-2,87,70,53,49,22,14,62,19,8,30.08,29.89,9,2,17,0.02
2013-11-3,81,68,57,53,47,39,81,51,26,29.99,29.78,9,2,17,0.03
2013-11-4,79,66,51,52,45,42,74,49,28,29.87,29.73,10,3,18,0.00
2013-11-5,71,62,54,47,43,39,72,53,32,30.15,29.87,7,2,12,0.00
2013-11-6,77,61,45,42,28,9,79,38,8,30.27,30.14,10,1,10,0.00
2013-11-7,82,68,52,30,21,3,30,17,10,30.23,30.06,11,3,18,0.00
2013-11-8,83,68,57,36,33,29,40,29,18,30.12,29.98,5,1,11,0.00
2013-11-9,83,67,52,41,36,33,50,34,20,30.14,30.03,4,1,7,0.00
2013-11-10,86,68,51,39,36,35,55,34,16,30.17,30.02,7,1,12,0.00
2013-11-11,89,69,51,43,38,34,54,34,17,30.12,30.01,6,1,10,0.00
2013-11-12,85,72,58,44,39,30,46,31,20,30.21,30.12,17,6,23,0.00
2013-11-13,78,69,63,45,43,41,48,40,30,30.20,30.02,14,4,21,0.00
2013-11-14,81,67,53,46,42,36,66,42,23,30.06,29.89,5,1,9,0.00
2013-11-15,75,66,56,52,45,35,61,47,35,29.88,29.68,14,3,20,0.00
2013-11-16,76,66,56,52,45,32,76,50,21,29.93,29.75,16,3,21,0.00
2013-11-17,76,64,52,48,46,44,74,54,34,30.08,29.93,8,1,11,0.00
2013-11-18,79,65,52,48,45,42,73,51,30,30.11,29.99,8,1,12,0.00
2013-11-19,80,64,50,43,40,32,67,46,19,30.05,29.87,8,1,13,0.00
2013-11-20,75,63,51,42,39,37,62,44,26,29.93,29.83,6,1,14,0.00
2013-11-21,73,64,53,54,43,38,83,49,30,29.97,29.87,10,1,12,0.00
2013-11-22,65,55,47,57,50,45,95,85,57,29.98,29.82,6,2,16,0.51
2013-11-23,54,49,46,49,46,44,96,90,76,30.08,29.98,10,2,13,1.15
2013-11-24,62,51,45,46,42,39,94,73,47,30.15,30.05,5,0,10,0.00
2013-11-25,60,48,37,43,40,36,96,75,48,30.23,30.12,5,0,7,0.00
2013-11-26,66,54,41,41,34,27,92,52,27,30.27,30.15,12,2,15,0.00
2013-11-27,62,56,51,28,26,24,40,32,23,30.17,30.02,14,2,14,0.00
2013-11-28,73,58,46,39,32,26,64,39,23,30.11,30.00,7,1,13,0.00
2013-11-29,76,59,46,45,41,37,75,53,28,30.20,30.07,6,0,10,0.00
2013-11-30,72,58,46,46,44,42,85,64,37,30.19,30.07,6,0,7,0.00
2013-12-1,71,58,49,49,46,43,87,68,38,30.23,30.13,3,0,8,0.00
2013-12-2,72,56,42,46,40,34,92,61,25,30.18,29.94,0,0,5,0.00
2013-12-3,75,59,46,43,35,23,67,46,15,29.95,29.75,3,0,7,0.00
2013-12-4,68,58,46,47,42,34,92,58,29,29.93,29.77,15,3,21,0.03
2013-12-5,50,45,36,44,36,26,93,71,49,30.09,29.89,5,0,10,0.21
2013-12-6,53,41,31,30,27,20,91,60,28,30.17,30.06,3,0,5,0.00
2013-12-7,59,44,30,30,27,21,90,56,23,30.08,29.96,3,0,8,0.00
2013-12-8,56,48,41,41,37,28,77,65,48,30.12,30.00,7,0,7,0.00
2013-12-9,51,43,34,30,22,18,76,46,27,30.27,30.07,6,0,9,0.00
2013-12-10,63,45,31,29,24,18,80,48,18,30.26,30.08,1,0,5,0.00
2013-12-11,74,55,36,42,34,26,74,48,29,30.19,30.10,5,0,11,0.00
2013-12-12,74,58,45,43,36,31,70,45,33,30.18,30.05,8,1,13,0.00
2013-12-13,63,49,38,35,33,30,81,57,31,30.19,30.08,5,0,9,0.00
2013-12-14,65,48,36,35,31,26,84,55,24,30.29,30.17,4,0,9,0.00
2013-12-15,67,51,36,31,29,25,73,45,21,30.29,30.17,4,0,8,0.00
2013-12-16,79,57,40,34,28,22,62,38,12,30.23,30.13,1,0,4,0.00
2013-12-17,83,62,43,30,27,24,57,30,12,30.24,30.09,2,0,4,0.00
2013-12-18,80,64,53,31,27,23,41,26,12,30.10,29.87,4,0,7,0.00
2013-12-19,70,58,45,41,29,22,65,36,17,29.88,29.71,13,1,17,0.00
2013-12-20,54,48,44,44,41,36,93,76,57,29.84,29.65,7,1,20,0.41
2013-12-21,55,48,42,43,40,33,92,76,47,30.05,29.83,12,1,17,0.04
2013-12-22,59,47,37,44,38,32,96,74,44,30.27,30.06,3,0,4,0.01
2013-12-23,66,50,36,37,31,24,90,55,22,30.34,30.24,5,0,10,0.00
2013-12-24,69,53,43,35,28,24,71,42,19,30.23,30.11,5,0,9,0.00
2013-12-25,68,52,36,35,30,23,81,48,22,30.25,30.13,7,1,14,0.00
2013-12-26,65,53,42,28,24,19,50,34,20,30.23,30.11,15,1,18,0.00
2013-12-27,68,54,40,28,22,16,57,32,16,30.22,30.11,16,1,17,0.00
2013-12-28,65,53,43,32,26,18,50,36,20,30.15,29.95,8,1,11,0.00
2013-12-29,65,52,39,33,30,28,71,46,26,30.15,29.96,7,0,11,0.00
2013-12-30,67,50,35,32,29,25,80,51,21,30.27,30.14,3,0,6,0.00
2013-12-31,74,54,38,30,25,18,67,37,13,30.24,30.08,5,0,8,0.00
2014-1-1,71,53,39,32,27,24,61,41,18,30.18,30.07,1,0,7,0.00
2014-1-2,75,57,40,30,27,22,67,36,14,30.18,30.06,9,0,10,0.00